RYR1205 EHRD-LOWS

Flight info

Callsign RYR1205
Flight time N/A
Altitude 33000
Route LUNIX Z739 MISGO DCT TIVUN DCT ESAMA DCT OSBIT DCT BOREP DCT ARMUT/N0463F310 T703 ARBAX/N0462F300 T108 OSTES T700 BADIT BADIT2R
Aircraft B738/M-SDE2E3FGHIRWXY/LB1

Departure

Time 2026-04-30 14:38
Airport Rotterdam The Hague Airport (EHRD)

Arrival

Time N/A
Airport Salzburg Airport (LOWS)
Time Latitude Longitude Altitude Speed Heading
2026-04-30 14:17 51.95088 4.43431 0 ft 0 kts 327°
2026-04-30 14:33 51.95092 4.43426 0 ft 3 kts 327°
2026-04-30 14:33 51.95121 4.43409 0 ft 5 kts 358°
2026-04-30 14:34 51.95146 4.43442 0 ft 5 kts 56°
2026-04-30 14:34 51.95165 4.43485 0 ft 5 kts 44°
2026-04-30 14:34 51.95197 4.43484 0 ft 6 kts 329°
2026-04-30 14:34 51.95238 4.43437 0 ft 8 kts 308°
2026-04-30 14:35 51.95203 4.43299 0 ft 8 kts 237°
2026-04-30 14:35 51.95172 4.43222 0 ft 8 kts 237°
2026-04-30 14:35 51.95145 4.43144 1 ft 8 kts 243°
2026-04-30 14:36 51.95122 4.43067 0 ft 8 kts 244°
2026-04-30 14:36 51.95112 4.42986 0 ft 8 kts 278°
2026-04-30 14:36 51.95153 4.42905 0 ft 12 kts 323°
2026-04-30 14:36 51.95216 4.42862 1 ft 8 kts 20°
2026-04-30 14:37 51.95238 4.42900 1 ft 0 kts 55°
2026-04-30 14:37 51.95311 4.43076 0 ft 51 kts 57°
2026-04-30 14:37 51.95636 4.43897 -1 ft 119 kts 57°
2026-04-30 14:38 51.96200 4.45257 99 ft 166 kts 57°
2026-04-30 14:38 51.96865 4.46777 1005 ft 161 kts 59°
2026-04-30 14:38 51.97440 4.48252 2034 ft 152 kts 68°
2026-04-30 14:38 51.97961 4.49886 2475 ft 179 kts 69°
2026-04-30 14:39 51.98533 4.51842 2766 ft 206 kts 68°
2026-04-30 14:39 51.99192 4.54026 2992 ft 221 kts 69°
2026-04-30 14:39 51.99918 4.56251 2982 ft 226 kts 59°
2026-04-30 14:40 52.02560 4.59189 3002 ft 238 kts 30°
2026-04-30 14:40 52.04068 4.60261 3002 ft 240 kts 30°
2026-04-30 14:40 52.05497 4.61592 2983 ft 234 kts 47°
2026-04-30 14:40 52.06620 4.63474 3010 ft 232 kts 52°
2026-04-30 14:41 52.07726 4.65385 3011 ft 232 kts 52°
2026-04-30 14:41 52.08832 4.67286 2988 ft 231 kts 52°
2026-04-30 14:41 52.09943 4.69181 2998 ft 232 kts 52°
2026-04-30 14:41 52.11059 4.71075 3008 ft 232 kts 52°
2026-04-30 14:42 52.12175 4.72971 3000 ft 230 kts 52°
2026-04-30 14:42 52.13289 4.74844 3013 ft 231 kts 52°
2026-04-30 14:42 52.14403 4.76730 3003 ft 232 kts 52°
2026-04-30 14:42 52.15465 4.78672 2987 ft 226 kts 63°
2026-04-30 14:43 52.16030 4.80960 3016 ft 218 kts 77°
2026-04-30 14:43 52.16471 4.83324 3014 ft 219 kts 77°
2026-04-30 14:43 52.16917 4.85704 2999 ft 220 kts 77°
2026-04-30 14:43 52.17364 4.88098 3012 ft 221 kts 77°
2026-04-30 14:44 52.17813 4.90492 3001 ft 220 kts 77°
2026-04-30 14:44 52.18262 4.92886 2981 ft 221 kts 76°
2026-04-30 14:44 52.18713 4.95288 2998 ft 222 kts 76°
2026-04-30 14:44 52.19167 4.97690 3007 ft 221 kts 76°
2026-04-30 14:45 52.19606 5.00015 3412 ft 216 kts 77°
2026-04-30 14:45 52.20053 5.02398 3927 ft 223 kts 78°
2026-04-30 14:45 52.20510 5.04833 4438 ft 227 kts 78°
2026-04-30 14:45 52.20975 5.07315 4942 ft 230 kts 78°
2026-04-30 14:46 52.21447 5.09829 5468 ft 234 kts 78°
2026-04-30 14:46 52.21933 5.12434 5877 ft 249 kts 78°
2026-04-30 14:46 52.22446 5.15181 6512 ft 257 kts 78°
2026-04-30 14:46 52.22971 5.17980 7369 ft 257 kts 77°
2026-04-30 14:47 52.23494 5.20777 8226 ft 259 kts 77°
2026-04-30 14:47 52.23967 5.23637 9003 ft 262 kts 87°
2026-04-30 14:47 52.23772 5.26537 9840 ft 258 kts 108°
2026-04-30 14:47 52.22985 5.29182 10572 ft 263 kts 123°
2026-04-30 14:48 52.21905 5.31702 10847 ft 286 kts 124°
2026-04-30 14:48 52.20690 5.34437 11030 ft 309 kts 125°
2026-04-30 14:48 52.19371 5.37364 11207 ft 331 kts 126°
2026-04-30 14:48 52.17909 5.40412 11371 ft 351 kts 127°
2026-04-30 14:49 52.16356 5.43572 11792 ft 361 kts 127°
2026-04-30 14:49 52.14765 5.46789 12300 ft 369 kts 127°
2026-04-30 14:49 52.13143 5.50080 12895 ft 373 kts 127°
2026-04-30 14:49 52.11513 5.53394 13584 ft 375 kts 127°
2026-04-30 14:50 52.08224 5.60098 14727 ft 383 kts 127°
2026-04-30 14:50 52.06556 5.63498 15277 ft 386 kts 127°
2026-04-30 14:51 52.03173 5.70390 16384 ft 393 kts 127°
2026-04-30 14:51 52.01456 5.73879 16916 ft 396 kts 127°
2026-04-30 14:51 51.98007 5.80879 17946 ft 403 kts 127°
2026-04-30 14:52 51.96248 5.84440 18451 ft 406 kts 127°
2026-04-30 14:52 51.92682 5.91645 19321 ft 413 kts 127°
2026-04-30 14:52 51.90877 5.95285 19787 ft 415 kts 127°
2026-04-30 14:53 51.87284 6.02518 20579 ft 424 kts 127°
2026-04-30 14:53 51.85427 6.06246 20986 ft 427 kts 127°
2026-04-30 14:54 51.81495 6.13517 21842 ft 432 kts 130°
2026-04-30 14:54 51.77457 6.20789 22634 ft 437 kts 130°
2026-04-30 14:55 51.73438 6.28127 23435 ft 441 kts 129°
2026-04-30 14:55 51.71388 6.31873 23698 ft 447 kts 129°
2026-04-30 14:55 51.67228 6.39456 24225 ft 454 kts 130°
2026-04-30 14:56 51.63037 6.47062 25007 ft 454 kts 130°
2026-04-30 14:56 51.58836 6.54661 25496 ft 461 kts 130°
2026-04-30 14:57 51.56661 6.58590 25833 ft 462 kts 130°
2026-04-30 14:57 51.52401 6.66265 26417 ft 465 kts 130°
2026-04-30 14:58 51.48083 6.74026 27092 ft 465 kts 129°
2026-04-30 14:58 51.45929 6.77889 27480 ft 464 kts 129°
2026-04-30 14:58 51.41620 6.85598 28298 ft 462 kts 129°
2026-04-30 14:59 51.37712 6.93698 29126 ft 458 kts 122°
2026-04-30 15:00 51.32502 7.06197 30443 ft 451 kts 121°
2026-04-30 15:00 51.29011 7.14457 31077 ft 451 kts 122°
2026-04-30 15:01 51.25466 7.22719 31662 ft 451 kts 122°
2026-04-30 15:01 51.24264 7.25505 31866 ft 451 kts 122°
2026-04-30 15:01 51.20140 7.35039 32711 ft 447 kts 122°
2026-04-30 15:02 51.18373 7.39116 33014 ft 447 kts 122°
2026-04-30 15:02 51.16606 7.43186 33309 ft 446 kts 122°
2026-04-30 15:03 51.07718 7.63574 33368 ft 445 kts 122°
2026-04-30 15:04 50.98887 7.83677 33364 ft 443 kts 122°
2026-04-30 15:06 50.89521 8.02914 33376 ft 449 kts 132°
2026-04-30 15:07 50.80438 8.16493 33348 ft 451 kts 133°
2026-04-30 15:08 50.71348 8.30255 33356 ft 453 kts 132°
2026-04-30 15:09 50.59946 8.47457 33380 ft 454 kts 132°
2026-04-30 15:10 50.50782 8.61190 33373 ft 455 kts 132°
2026-04-30 15:11 50.43863 8.77052 33385 ft 440 kts 107°
2026-04-30 15:11 50.41723 8.86048 33373 ft 440 kts 107°
2026-04-30 15:13 50.36272 9.08338 33377 ft 440 kts 108°
2026-04-30 15:14 50.29302 9.39849 33377 ft 437 kts 101°
2026-04-30 15:17 50.21897 9.81016 33386 ft 437 kts 102°
2026-04-30 15:19 50.15146 10.17217 33399 ft 436 kts 102°